User: anonymous   Login
Location: Mentone
(34.5413°N, 85.5351°W)
Time: 12:13:48
(UTC-05:00)
Language:

ERBS - Orbit

View from above orbital plane
View from above orbital plane
View from above satellite
View from above satellite

Ground track
Ground track

The orbit data is extracted from the following two-line orbital elements,

1 15354U 84108B   16208.47043882  .00002154  00000-0  60415-4 0  9994
2 15354  57.0093  98.2271 0010474 177.2010 182.9104 15.41174765747944
Epoch (UTC): 26 July 2016 11:17:25
Eccentricity: 0.0010474
inclination: 57.0093°
perigee height: 435 km
apogee height: 450 km
right ascension of ascending node: 98.2271°
argument of perigee: 177.2010°
revolutions per day: 15.41174765
mean anomaly at epoch: 182.9104°
orbit number at epoch: 74794

The dashed part of the orbit path shows where the satellite is in the earth's shadow,  

DLR